Regional Weather Roundup
Issued by NWS Newport/Morehead, NC

Current Version | Previous Version | Text Only | Print | Product List | Glossary Off
Versions: 1 2 3 4 5 6 7 8 9 10 11 12 13 14 15 16 17 18 19 20 21 22 23 24 25 26 27 28 29 30 31 32 33 34 35 36 37 38 39 40 41 42 43 44 45 46 47 48 49 50
000 ASUS42 KMHX 291513 RWRMHX WEATHER ROUNDUP FOR EASTERN NORTH CAROLINA NATIONAL WEATHER SERVICE NEWPORT/MOREHEAD CITY NC 1100 AM EDT WED JUL 29 2015 NOTE: "FAIR" INDICATES FEW OR NO CLOUDS BELOW 12,000 FEET WITH NO SIGNIFICANT WEATHER AND/OR OBSTRUCTIONS TO VISIBILITY NCZ015>017-031-032-045>047-102-103-291600- NORTH COAST CITY SKY/WX TMP DP RH WIND PRES REMARKS EDENTON N/A 83 71 65 S6 30.04S ELIZABETH CITY SUNNY 85 72 65 SE8 30.04S KITTY HAWK SUNNY 87 69 54 SE6 30.04S MANTEO SUNNY 84 69 60 E8 30.05S $$ NCZ045>047-081-094-103-104-291600- CENTRAL COAST CITY SKY/WX TMP DP RH WIND PRES REMARKS FRISCO SUNNY 86 70 58 E12 30.04R SWANQUARTER N/A 86 N/A N/A E7G13 30.00S $$ NCZ095-097-098-100-101-291600- SOUTHERN COAST CITY SKY/WX TMP DP RH WIND PRES REMARKS BEAUFORT MOSUNNY 84 72 67 E12 30.02R CEDAR ISLAND N/A 84 N/A N/A E9G15 30.06S JACKSONVILLE SUNNY 86 71 60 NE5 30.01S PINEY ISLAND SUNNY N/A N/A N/A E12 30.03R WILMINGTON SUNNY 86 71 60 E8 30.01S $$ NCZ011>013-027>030-043-044-078>080-089-090>093-098-291600- COASTAL PLAIN CITY SKY/WX TMP DP RH WIND PRES REMARKS AHOSKIE SUNNY 82 71 68 CALM 30.05R CLINTON SUNNY 85 72 63 E5 30.03F ELIZABETHTOWN SUNNY 86 72 62 CALM 30.02S GOLDSBORO SUNNY 85 71 61 SE3 30.01F GREENVILLE MOSUNNY 86 72 62 CALM 30.05S HAVELOCK SUNNY 86 71 60 E8 30.03S KENANSVILLE SUNNY 83 70 62 CALM 30.04S KINSTON SUNNY 84 72 65 CALM 30.04S NEW BERN SUNNY 86 71 60 E8 30.04R RICHLANDS SUNNY 84 70 61 NE6 30.02S ROCKY MOUNT CLOUDY 83 71 67 CALM 30.05R WASHINGTON SUNNY 84 72 66 E3 30.04R WHITEVILLE SUNNY 85 71 61 NE3 30.01F $$ AMZ130-135-150-152-154-156-158-170-250-252-270-ANZ085-086-088-633-658-670-291600- MARINE OBSERVATIONS STATION/POSITION TIME TEMP WIND PRES WAVE SWELL AIR SEA DIR/SP/G HT/PER HT/PER (UTC) (F) (DEG/KT/KT) (MB) (FT/S) (FT/S) CHESAPEAKE LIGHT 1500 80 180/ 6/ 7 1018.3 64 E VA BEACH 1450 81 81 170/ 4/ 6 1017.6 2/ 6 2/ 6 DUCK 1400 83 64 120/ 3/ 4 1016.5 2 E DUCK 1411 79 N/A 2/ 9 OREGON INLET 1400 82 82 110/ 7/ 9 1017.0 13E OREGON INLT 1500 81 N/A 3/ 6 HATTERAS CG 1400 82 82 100/ 8/ 12 1016.5 DIAMOND BUOY NOT AVBL CAPE LOOKOUT 1500 81 70/ 13/ 14 1016.1 BEAUFORT LAB 1400 82 81 80/ 9/ 13 1015.5 30 SE NEW RVR IN NOT AVBL 27 SE WRIGHTSVLE 1400 79 82 80/ 14/ 16 N/A 5 SE WRIGHTSVLE 1408 82 82 80/ 10/ 14 1016.0 225 S CAPE HAT 1450 82 81 230/ 17/ 19 1014.7 6/ 7 2/10 41 SE CHARLESTON 1450 83 84 30/ 10/ 12 1015.0 3/ 7 2/ 7 $$

USA.gov is the U.S. government's official web portal to all federal, state and local government web resources and services.